This is the latest recevied weather packets stored in our database for station/object AF9W-5. If no packets are shown the sender has not sent any weather packets the latest 10 day(s).
| Time | Temp. | Humidity | Pressure | Rain* | Wind** | Luminosity | Snow |
|---|---|---|---|---|---|---|---|
| 1777388282 | 18.33° C | 29% | 1016.4 hPa | 0 mm | - | 314 W/m² | - |
| 1777387981 | 18.33° C | 29% | 1016.5 hPa | 0 mm | - | 298 W/m² | - |
| 1777387677 | 17.78° C | 29% | 1016.3 hPa | 0 mm | - | 290 W/m² | - |
| 1777387374 | 17.78° C | 29% | 1016.2 hPa | 0 mm | - | 261 W/m² | - |
| 1777387069 | 17.78° C | 30% | 1016.2 hPa | 0 mm | - | 242 W/m² | - |
| 1777386765 | 17.78° C | 30% | 1016.1 hPa | 0 mm | - | 237 W/m² | - |
| 1777386463 | 17.22° C | 31% | 1016.3 hPa | 0 mm | - | 207 W/m² | - |
| 1777386159 | 16.67° C | 31% | 1016.4 hPa | 0 mm | - | 186 W/m² | - |
| 1777385856 | 16.11° C | 32% | 1016.2 hPa | 0 mm | - | 167 W/m² | - |
| 1777385553 | 16.11° C | 33% | 1016.3 hPa | 0 mm | - | 154 W/m² | - |
| 1777385250 | 15.56° C | 33% | 1016.2 hPa | 0 mm | - | 144 W/m² | - |
| 1777384946 | 15° C | 35% | 1015.9 hPa | 0 mm | - | 130 W/m² | - |
| 1777384644 | 15° C | 35% | 1016.3 hPa | 0 mm | - | 114 W/m² | - |
| 1777384343 | 14.44° C | 35% | 1016.2 hPa | 0 mm | - | 102 W/m² | - |
| 1777384039 | 14.44° C | 35% | 1015.9 hPa | 0 mm | - | 90 W/m² | - |
| 1777383736 | 13.89° C | 36% | 1015.7 hPa | 0 mm | - | 77 W/m² | - |
| 1777383432 | 13.89° C | 37% | 1016.2 hPa | 0 mm | - | 64 W/m² | - |
| 1777383128 | 13.33° C | 38% | 1015.8 hPa | 0 mm | - | 55 W/m² | - |
| 1777382826 | 13.33° C | 38% | 1015.5 hPa | 0 mm | - | 40 W/m² | - |
| 1777382521 | 12.78° C | 38% | 1015.5 hPa | 0 mm | - | 35 W/m² | - |
| 1777382216 | 11.67° C | 40% | 1015.9 hPa | 0 mm | - | 31 W/m² | - |
| 1777381913 | 9.44° C | 45% | 1015.6 hPa | 0 mm | - | 26 W/m² | - |
| 1777381612 | 8.89° C | 48% | 1015.7 hPa | 0 mm | - | 22 W/m² | - |
| 1777381309 | 8.89° C | 49% | 1015.6 hPa | 0 mm | - | 17 W/m² | - |
| 1777381006 | 8.89° C | 49% | 1015.8 hPa | 0 mm | - | 14 W/m² | - |
* Rain latest hour (hover to see other rain measurements)
** Current wind speed in m/s (hover to see current wind gust speed)